Time,TemperatureF,DewpointF,PressureIn,WindDirection,WindDirectionDegrees,WindSpeedMPH,WindSpeedGustMPH,Humidity,HourlyPrecipIn,Conditions,Clouds,dailyrainin,SolarRadiationWatts/m^2,SoftwareType,DateUTC
2013-08-20 00:01:00,65.0,47.0,-100.00,NNE,33,6.0,9.0,52,0.00,,,0.00,0.000000,,2013-08-20 07:01:00,
2013-08-20 00:11:00,65.0,47.0,-100.00,NNE,33,6.0,9.0,52,0.00,,,0.00,0.000000,,2013-08-20 07:11:00,
2013-08-20 00:52:00,66.0,47.0,-100.00,NW,318,6.0,8.0,51,0.00,,,0.00,0.000000,,2013-08-20 07:52:00,
2013-08-20 01:02:00,66.0,47.0,-100.00,NW,318,6.0,8.0,51,0.00,,,0.00,0.000000,,2013-08-20 08:02:00,
2013-08-20 01:11:00,66.0,47.0,-100.00,NW,318,6.0,8.0,51,0.00,,,0.00,0.000000,,2013-08-20 08:11:00,
2013-08-20 01:52:00,65.0,46.0,-100.00,NW,314,6.0,8.0,51,-99.99,,,0.00,0.000000,,2013-08-20 08:52:00,
2013-08-20 02:01:00,65.0,46.0,-100.00,NW,314,6.0,8.0,51,-99.99,,,0.00,0.000000,,2013-08-20 09:01:00,
2013-08-20 02:11:00,65.0,46.0,-100.00,NW,314,6.0,8.0,51,-99.99,,,0.00,0.000000,,2013-08-20 09:11:00,
2013-08-20 02:21:00,65.0,46.0,-100.00,NW,314,6.0,8.0,51,-99.99,,,0.00,0.000000,,2013-08-20 09:21:00,
2013-08-20 02:53:00,64.0,45.0,-100.00,NW,320,5.0,8.0,50,-99.99,,,0.00,0.000000,,2013-08-20 09:53:00,
2013-08-20 03:03:00,64.0,45.0,-100.00,NW,320,5.0,8.0,50,-99.99,,,0.00,0.000000,,2013-08-20 10:03:00,
2013-08-20 03:12:00,64.0,45.0,-100.00,NW,320,5.0,8.0,50,-99.99,,,0.00,0.000000,,2013-08-20 10:12:00,
2013-08-20 03:22:00,64.0,45.0,-100.00,NW,320,5.0,8.0,50,-99.99,,,0.00,0.000000,,2013-08-20 10:22:00,
2013-08-20 03:52:00,66.0,47.0,-100.00,NW,317,6.0,7.0,50,0.00,,,0.00,0.000000,,2013-08-20 10:52:00,
2013-08-20 04:02:00,66.0,47.0,-100.00,NW,317,6.0,7.0,50,0.00,,,0.00,0.000000,,2013-08-20 11:02:00,
2013-08-20 04:11:00,66.0,47.0,-100.00,NW,317,6.0,7.0,50,0.00,,,0.00,0.000000,,2013-08-20 11:11:00,
2013-08-20 04:21:00,66.0,47.0,-100.00,NW,317,6.0,7.0,50,0.00,,,0.00,0.000000,,2013-08-20 11:21:00,
2013-08-20 04:52:00,66.0,47.0,-100.00,SW,218,6.0,7.0,50,0.00,,,0.00,0.000000,,2013-08-20 11:52:00,
2013-08-20 05:01:00,66.0,47.0,-100.00,SW,218,6.0,7.0,50,0.00,,,0.00,0.000000,,2013-08-20 12:01:00,
2013-08-20 05:12:00,66.0,47.0,-100.00,SW,218,6.0,7.0,50,0.00,,,0.00,0.000000,,2013-08-20 12:12:00,
2013-08-20 05:21:00,66.0,47.0,-100.00,SW,218,6.0,7.0,50,0.00,,,0.00,0.000000,,2013-08-20 12:21:00,
2013-08-20 06:11:00,65.0,48.0,-100.00,NNW,347,5.0,8.0,54,0.00,,,0.00,0.000000,,2013-08-20 13:11:00,
2013-08-20 06:21:00,65.0,48.0,-100.00,NNW,347,5.0,8.0,54,0.00,,,0.00,0.000000,,2013-08-20 13:21:00,
2013-08-20 06:52:00,65.0,48.0,-100.00,NW,318,5.0,7.0,55,0.00,,,0.00,0.000000,,2013-08-20 13:52:00,
2013-08-20 07:02:00,65.0,48.0,-100.00,NW,318,5.0,7.0,55,0.00,,,0.00,0.000000,,2013-08-20 14:02:00,
2013-08-20 07:11:00,65.0,48.0,-100.00,NW,318,5.0,7.0,55,0.00,,,0.00,0.000000,,2013-08-20 14:11:00,
2013-08-20 07:21:00,65.0,48.0,-100.00,NW,318,5.0,7.0,55,0.00,,,0.00,0.000000,,2013-08-20 14:21:00,
2013-08-20 07:52:00,71.0,49.0,-100.00,NW,322,4.0,7.0,45,0.00,,,0.00,60.000000,,2013-08-20 14:52:00,
2013-08-20 08:02:00,71.0,49.0,-100.00,NW,322,4.0,7.0,45,0.00,,,0.00,60.000000,,2013-08-20 15:02:00,
2013-08-20 08:11:00,71.0,49.0,-100.00,NW,322,4.0,7.0,45,0.00,,,0.00,60.000000,,2013-08-20 15:11:00,
2013-08-20 08:22:00,71.0,49.0,-100.00,NW,322,4.0,7.0,45,0.00,,,0.00,60.000000,,2013-08-20 15:22:00,
2013-08-20 08:25:00,-999.0,-99.9,-100.00,WNW,293,0.0,6.0,32,0.00,,,0.00,299.000000,,2013-08-20 15:25:00,
2013-08-20 08:53:00,78.0,46.0,-100.00,WNW,293,0.0,6.0,32,0.00,,,0.00,299.000000,,2013-08-20 15:53:00,
2013-08-20 09:04:00,78.0,46.0,-100.00,WNW,293,0.0,6.0,32,0.00,,,0.00,299.000000,,2013-08-20 16:04:00,
2013-08-20 09:15:00,78.0,46.0,-100.00,WNW,293,0.0,6.0,32,0.00,,,0.00,299.000000,,2013-08-20 16:15:00,
2013-08-20 09:53:00,84.0,45.0,-100.00,ESE,119,9.0,14.0,26,0.00,,,0.00,532.000000,,2013-08-20 16:53:00,
2013-08-20 10:03:00,84.0,45.0,-100.00,ESE,119,9.0,14.0,26,0.00,,,0.00,532.000000,,2013-08-20 17:03:00,
2013-08-20 10:12:00,84.0,45.0,-100.00,ESE,119,9.0,14.0,26,0.00,,,0.00,532.000000,,2013-08-20 17:12:00,
2013-08-20 10:24:00,84.0,45.0,-100.00,ESE,119,9.0,14.0,26,0.00,,,0.00,532.000000,,2013-08-20 17:24:00,
2013-08-20 10:52:00,84.0,44.0,-100.00,SE,132,9.0,17.0,25,0.00,,,0.00,746.000000,,2013-08-20 17:52:00,
2013-08-20 11:02:00,84.0,44.0,-100.00,SE,132,9.0,17.0,25,0.00,,,0.00,746.000000,,2013-08-20 18:02:00,
2013-08-20 11:12:00,84.0,44.0,-100.00,SE,132,9.0,17.0,25,0.00,,,0.00,746.000000,,2013-08-20 18:12:00,
2013-08-20 11:21:00,84.0,44.0,-100.00,SE,132,9.0,17.0,25,0.00,,,0.00,746.000000,,2013-08-20 18:21:00,
2013-08-20 11:52:00,85.0,44.0,-100.00,East,98,12.0,19.0,24,0.00,,,0.00,933.000000,,2013-08-20 18:52:00,
2013-08-20 12:01:00,85.0,44.0,-100.00,East,98,12.0,19.0,24,0.00,,,0.00,933.000000,,2013-08-20 19:01:00,
2013-08-20 12:11:00,85.0,44.0,-100.00,East,98,12.0,19.0,24,0.00,,,0.00,933.000000,,2013-08-20 19:11:00,
2013-08-20 12:21:00,85.0,44.0,-100.00,East,98,12.0,19.0,24,0.00,,,0.00,933.000000,,2013-08-20 19:21:00,
2013-08-20 12:52:00,86.0,43.0,-100.00,ESE,113,10.0,21.0,22,0.00,,,0.00,983.000000,,2013-08-20 19:52:00,
2013-08-20 13:03:00,86.0,43.0,-100.00,ESE,113,10.0,21.0,22,0.00,,,0.00,983.000000,,2013-08-20 20:03:00,
2013-08-20 13:11:00,86.0,43.0,-100.00,ESE,113,10.0,21.0,22,0.00,,,0.00,983.000000,,2013-08-20 20:11:00,
2013-08-20 13:21:00,86.0,43.0,-100.00,ESE,113,10.0,21.0,22,0.00,,,0.00,983.000000,,2013-08-20 20:21:00,
2013-08-20 13:52:00,88.0,44.0,-100.00,ESE,102,12.0,23.0,22,0.00,,,0.00,1024.000000,,2013-08-20 20:52:00,
2013-08-20 14:02:00,88.0,44.0,-100.00,ESE,102,12.0,23.0,22,0.00,,,0.00,1024.000000,,2013-08-20 21:02:00,
2013-08-20 14:11:00,88.0,44.0,-100.00,ESE,102,12.0,23.0,22,0.00,,,0.00,1024.000000,,2013-08-20 21:11:00,
2013-08-20 14:22:00,88.0,44.0,-100.00,ESE,102,12.0,23.0,22,0.00,,,0.00,1024.000000,,2013-08-20 21:22:00,
2013-08-20 15:14:00,90.0,31.0,-100.00,ESE,121,9.0,21.0,12,0.00,,,0.00,1068.000000,,2013-08-20 22:14:00,
2013-08-20 15:24:00,90.0,31.0,-100.00,ESE,121,9.0,21.0,12,0.00,,,0.00,1068.000000,,2013-08-20 22:24:00,
2013-08-20 15:53:00,89.0,28.0,-100.00,ESE,113,10.0,22.0,11,0.00,,,0.00,961.000000,,2013-08-20 22:53:00,
2013-08-20 16:03:00,89.0,28.0,-100.00,ESE,113,10.0,22.0,11,0.00,,,0.00,961.000000,,2013-08-20 23:03:00,
2013-08-20 16:12:00,89.0,28.0,-100.00,ESE,113,10.0,22.0,11,0.00,,,0.00,961.000000,,2013-08-20 23:12:00,
2013-08-20 16:22:00,89.0,28.0,-100.00,ESE,113,10.0,22.0,11,0.00,,,0.00,961.000000,,2013-08-20 23:22:00,
2013-08-20 16:53:00,90.0,36.0,-100.00,ESE,106,9.0,21.0,15,0.00,,,0.00,792.000000,,2013-08-20 23:53:00,
2013-08-20 17:02:00,90.0,36.0,-100.00,ESE,106,9.0,21.0,15,0.00,,,0.00,792.000000,,2013-08-21 00:02:00,
2013-08-20 17:12:00,90.0,36.0,-100.00,ESE,106,9.0,21.0,15,0.00,,,0.00,792.000000,,2013-08-21 00:12:00,
2013-08-20 17:22:00,90.0,36.0,-100.00,ESE,106,9.0,21.0,15,0.00,,,0.00,792.000000,,2013-08-21 00:22:00,
2013-08-20 17:52:00,89.0,28.0,-100.00,ESE,108,11.0,23.0,11,0.00,,,0.00,584.000000,,2013-08-21 00:52:00,
2013-08-20 18:02:00,89.0,28.0,-100.00,ESE,108,11.0,23.0,11,0.00,,,0.00,584.000000,,2013-08-21 01:02:00,
2013-08-20 18:11:00,89.0,28.0,-100.00,ESE,108,11.0,23.0,11,0.00,,,0.00,584.000000,,2013-08-21 01:11:00,
2013-08-20 18:21:00,89.0,28.0,-100.00,ESE,108,11.0,23.0,11,0.00,,,0.00,584.000000,,2013-08-21 01:21:00,
2013-08-20 18:52:00,85.0,22.0,-100.00,ESE,106,11.0,26.0,10,0.00,,,0.00,354.000000,,2013-08-21 01:52:00,
2013-08-20 19:02:00,85.0,22.0,-100.00,ESE,106,11.0,26.0,10,0.00,,,0.00,354.000000,,2013-08-21 02:02:00,
2013-08-20 19:12:00,85.0,22.0,-100.00,ESE,106,11.0,26.0,10,0.00,,,0.00,354.000000,,2013-08-21 02:12:00,
2013-08-20 19:22:00,85.0,22.0,-100.00,ESE,106,11.0,26.0,10,0.00,,,0.00,354.000000,,2013-08-21 02:22:00,
2013-08-20 19:52:00,80.0,23.0,-100.00,ESE,111,9.0,19.0,12,0.00,,,0.00,114.000000,,2013-08-21 02:52:00,
2013-08-20 20:02:00,80.0,23.0,-100.00,ESE,111,9.0,19.0,12,0.00,,,0.00,114.000000,,2013-08-21 03:02:00,
2013-08-20 20:12:00,80.0,23.0,-100.00,ESE,111,9.0,19.0,12,0.00,,,0.00,114.000000,,2013-08-21 03:12:00,
2013-08-20 20:22:00,80.0,23.0,-100.00,ESE,111,9.0,19.0,12,0.00,,,0.00,114.000000,,2013-08-21 03:22:00,
2013-08-20 21:13:00,74.0,22.0,-100.00,NW,324,0.0,15.0,14,0.00,,,0.00,1.000000,,2013-08-21 04:13:00,
2013-08-20 21:23:00,74.0,22.0,-100.00,NW,324,0.0,15.0,14,0.00,,,0.00,1.000000,,2013-08-21 04:23:00,
2013-08-20 22:22:00,72.0,31.0,-100.00,NW,306,2.0,5.0,22,0.00,,,0.00,0.000000,,2013-08-21 05:22:00,
2013-08-20 22:52:00,72.0,37.0,-100.00,NW,307,4.0,7.0,28,0.00,,,0.00,0.000000,,2013-08-21 05:52:00,
2013-08-20 23:02:00,72.0,37.0,-100.00,NW,307,4.0,7.0,28,0.00,,,0.00,0.000000,,2013-08-21 06:02:00,
2013-08-20 23:12:00,72.0,37.0,-100.00,NW,307,4.0,7.0,28,0.00,,,0.00,0.000000,,2013-08-21 06:12:00,
2013-08-20 23:22:00,72.0,37.0,-100.00,NW,307,4.0,7.0,28,0.00,,,0.00,0.000000,,2013-08-21 06:22:00,
2013-08-20 23:52:00,71.0,40.0,-100.00,WNW,301,3.0,7.0,32,0.00,,,0.00,0.000000,,2013-08-21 06:52:00,